OLANDS SODRA UDDE current weather conditions

sailwx.info

Wind from 350 at 11 knots

Air temperature 2.0° C
Visibility: greater than 5.4 NM
Dewpoint 2.0° C

Last reported at 2018-Dec-11 14:50 UTC.
Time now 2018-Dec-11 16:15 UTC

Location: N 56°56' E 014°44'.
View on Google Maps.

See reports from other nearby stations

  
Tides and Currents Weather Stations Pressure Air Temp Water Temp Dewpoint Dewpoint Depression Visibility Wind Speed Wind Dir Waves Ship Positions
date/time (UTC)wind fromknots sea level pressurealtimeterstation pressurevisibilityair tempwater tempwave heightnotes
2018-Dec-11 14:50 350 11 5.4 2.0
2018-Dec-11 14:20 360 11 5.4 2.0 Light drizzle.
2018-Dec-11 13:50 350 12 5.4 3.0
2018-Dec-11 13:20 350 11 5.4 3.0
2018-Dec-11 12:50 350 11 5.4 3.0
2018-Dec-11 12:20 010 11 5.4 3.0
2018-Dec-11 11:50 020 13 5.4 3.0
2018-Dec-11 11:20 360 11 5.4 3.0
2018-Dec-11 10:50 360 12 5.4 3.0
2018-Dec-11 10:20 350 12 5.4 3.0
2018-Dec-11 09:50 350 13 5.4 3.0
2018-Dec-11 09:20 350 12 5.4 2.0
2018-Dec-11 08:50 350 12 5.4 2.0
2018-Dec-11 08:20 340 11 5.4 2.0
2018-Dec-11 07:50 350 11 5.4 2.0
2018-Dec-11 07:20 340 12 5.4 2.0
2018-Dec-11 06:50 350 13 5.4 2.0
2018-Dec-11 06:20 340 13 5.4 2.0 Light rain.
2018-Dec-11 05:50 350 12 5.4 2.0 Light drizzle snow.
2018-Dec-11 05:20 350 11 5.4 2.0 Light drizzle snow.
2018-Dec-11 04:50 350 12 5.4 2.0
2018-Dec-11 04:20 350 12 5.4 2.0 Light drizzle.
2018-Dec-11 03:50 350 11 5.4 1.0 Light rain.
2018-Dec-11 03:20 340 8 5.4 1.0
2018-Dec-11 02:50 330 7 3.8 1.0 Snow grains.
2018-Dec-11 02:20 310 6 5.4-0.0 Light snow.
2018-Dec-11 01:50 320 6 5.4-0.0 Light snow.
2018-Dec-11 01:20 340 6 5.4-0.0
2018-Dec-11 00:50 350 8 5.4-0.0
2018-Dec-11 00:20 010 11 5.4-0.0
2018-Dec-10 23:50 020 11 5.4-0.0
2018-Dec-10 23:20 360 12 5.4 1.0 Light snow.
2018-Dec-10 22:50 350 8 2.5 1.0 Light snow.
2018-Dec-10 22:20 330 7 5.4 1.0
2018-Dec-10 21:50 330 6 5.4 1.0
2018-Dec-10 21:20 330 6 2.6 1.0 Mist.
2018-Dec-10 20:50 300 5 3.8 1.0 Light snow.
2018-Dec-10 20:20 320 6 3.2 1.0 Light snow.
2018-Dec-10 19:50 310 6 5.4 1.0
2018-Dec-10 19:20 300 6 4.3 1.0 Light snow.
2018-Dec-10 18:50 290 6 2.7 1.0 Light snow.
2018-Dec-10 18:20 270 6 3.2 1.0 Light snow.
2018-Dec-10 17:50 290 6 5.4 1.0 Snow grains.
2018-Dec-10 17:20 290 7 5.4 1.0
2018-Dec-10 16:50 290 8 5.4 2.0
2018-Dec-10 16:20 290 8 5.4 2.0
2018-Dec-10 15:50 280 6 5.4 2.0
2018-Dec-10 15:20 280 6 5.4 2.0
2018-Dec-10 14:50 280 6 5.4 2.0
2018-Dec-10 14:20 280 6 5.4 2.0
2018-Dec-10 13:50 280 6 5.4 2.0
2018-Dec-10 13:20 260 6 5.4 2.0
2018-Dec-10 12:50 280 6 5.4 2.0
2018-Dec-10 12:20 270 5 5.4 2.0
2018-Dec-10 11:50 250 6 5.4 1.0
2018-Dec-10 11:20 250 5 5.4 1.0
2018-Dec-10 10:50 250 6 5.4 1.0
2018-Dec-10 10:20 240 6 5.4 1.0
2018-Dec-10 09:50 240 6 5.4 1.0
2018-Dec-10 09:20 250 6 5.4-0.0
2018-Dec-10 08:50 250 6 5.4-0.0
2018-Dec-10 08:20 250 6 5.4-1.0
2018-Dec-10 07:50 250 6 5.4-1.0
2018-Dec-10 07:20 250 6 5.4-1.0
2018-Dec-10 06:50 250 6 5.4-1.0
2018-Dec-10 06:20 250 7 5.4-1.0
2018-Dec-10 05:50 250 6 5.4-1.0
2018-Dec-10 05:20 250 6 5.4-1.0
2018-Dec-10 04:50 250 6 5.4-1.0
2018-Dec-10 04:20 250 6 5.4-1.0
2018-Dec-10 03:50 260 4 5.4-1.0
2018-Dec-10 03:20 270 5 5.4-1.0
2018-Dec-10 02:50 250 4 5.4-2.0
2018-Dec-10 02:20 250 4 5.4-1.0
2018-Dec-10 01:50 250 5 5.4-1.0
2018-Dec-10 01:20 260 4 5.4-1.0
2018-Dec-10 00:50 260 6 5.4-1.0
2018-Dec-10 00:20 250 6 5.4-1.0
2018-Dec-09 23:50 250 6 5.4-1.0
2018-Dec-09 23:20 260 6 5.4-1.0
2018-Dec-09 22:50 250 5 5.4-1.0
2018-Dec-09 22:20 270 6 5.4-1.0
2018-Dec-09 21:50 270 6 5.4-0.0
2018-Dec-09 21:20 290 5 5.4-0.0
2018-Dec-09 20:50 310 7 5.4-0.0
2018-Dec-09 20:20 310 11 5.4 1.0
2018-Dec-09 19:50 310 12 5.4 2.0
2018-Dec-09 19:20 300 7 5.4 3.0
2018-Dec-09 18:50 300 6 5.4 3.0
2018-Dec-09 18:20 290 5 5.4 4.0 Light drizzle.
2018-Dec-09 17:50 260 4 5.4 4.0
2018-Dec-09 17:20 260 4 5.4 4.0
2018-Dec-09 16:50 230 4 5.4 4.0
2018-Dec-09 16:20 230 4 5.4 4.0